�������l�o���
Date,Time,MP-1(��Sv/h),MP-2(��Sv/h),MP-3(��Sv/h),MP-4(��Sv/h),MP-5(��Sv/h),MP-6(��Sv/h),MP-7(��Sv/h),MP-8(��Sv/h),����,����(m/s),���J
2024/02/04,00:00,0.513,0.781,0.488,0.983,0.699,0.313,0.559,0.524,�k�k��,4.0,��
2024/02/04,00:10,0.515,0.780,0.486,0.984,0.700,0.313,0.560,0.522,�k��,4.3,��
2024/02/04,00:20,0.513,0.781,0.486,0.984,0.697,0.312,0.558,0.523,�k��,4.6,��
2024/02/04,00:30,0.514,0.781,0.486,0.986,0.698,0.313,0.557,0.524,�k��,4.9,��
2024/02/04,00:40,0.516,0.781,0.485,0.983,0.699,0.313,0.558,0.524,�k��,4.3,��
2024/02/04,00:50,0.515,0.781,0.487,0.985,0.699,0.313,0.558,0.522,�k��,2.3,��
2024/02/04,01:00,0.513,0.782,0.485,0.985,0.699,0.312,0.557,0.522,�k��,3.3,��
2024/02/04,01:10,0.514,0.782,0.487,0.985,0.699,0.313,0.559,0.522,�k��,4.3,��
2024/02/04,01:20,0.515,0.781,0.486,0.983,0.699,0.312,0.558,0.523,�k��,2.3,��
2024/02/04,01:30,0.514,0.781,0.487,0.985,0.700,0.313,0.558,0.523,�k��,3.4,��
2024/02/04,01:40,0.514,0.781,0.487,0.986,0.697,0.312,0.559,0.524,�k��,3.3,��
2024/02/04,01:50,0.516,0.782,0.487,0.983,0.702,0.313,0.560,0.525,�k��,4.8,��
2024/02/04,02:00,0.513,0.783,0.486,0.984,0.698,0.312,0.559,0.522,���k��,5.1,��
2024/02/04,02:10,0.514,0.781,0.488,0.986,0.697,0.313,0.558,0.522,���k��,4.4,��
2024/02/04,02:20,0.516,0.782,0.488,0.984,0.699,0.312,0.559,0.523,�k��,2.9,��
2024/02/04,02:30,0.515,0.783,0.487,0.984,0.698,0.313,0.559,0.522,�k�k��,2.6,��
2024/02/04,02:40,0.513,0.780,0.485,0.984,0.700,0.313,0.559,0.524,�k�k��,3.6,��
2024/02/04,02:50,0.513,0.781,0.488,0.985,0.701,0.313,0.558,0.523,�k�k��,4.0,��
2024/02/04,03:00,0.514,0.781,0.487,0.985,0.698,0.313,0.558,0.524,�k�k��,3.9,��
2024/02/04,03:10,0.514,0.781,0.488,0.985,0.704,0.314,0.559,0.524,�k�k��,3.4,��
2024/02/04,03:20,0.516,0.781,0.488,0.985,0.699,0.313,0.559,0.522,�k��,2.6,��
2024/02/04,03:30,0.515,0.780,0.486,0.984,0.699,0.311,0.558,0.524,���k��,3.0,��
2024/02/04,03:40,0.514,0.782,0.487,0.986,0.700,0.313,0.558,0.522,�k��,2.6,��
2024/02/04,03:50,0.513,0.782,0.487,0.983,0.700,0.313,0.558,0.523,�k�k��,1.9,��
2024/02/04,04:00,0.514,0.780,0.487,0.984,0.699,0.314,0.559,0.522,�k�k��,2.9,��
2024/02/04,04:10,0.515,0.780,0.486,0.985,0.699,0.313,0.558,0.522,�k�k��,2.8,��
2024/02/04,04:20,0.515,0.779,0.487,0.985,0.700,0.313,0.559,0.521,�k�k��,3.3,��
2024/02/04,04:30,0.515,0.783,0.487,0.983,0.698,0.313,0.558,0.523,�k�k��,3.4,��
2024/02/04,04:40,0.515,0.780,0.487,0.984,0.699,0.313,0.560,0.522,�k�k��,3.8,��
2024/02/04,04:50,0.516,0.784,0.487,0.985,0.699,0.313,0.558,0.524,�k��,5.1,��
2024/02/04,05:00,0.513,0.781,0.487,0.983,0.701,0.313,0.558,0.524,�k��,4.6,��
2024/02/04,05:10,0.515,0.782,0.488,0.984,0.700,0.313,0.559,0.522,�k��,3.9,��
2024/02/04,05:20,0.515,0.782,0.487,0.984,0.699,0.313,0.558,0.525,�k��,5.2,��
2024/02/04,05:30,0.514,0.782,0.487,0.986,0.699,0.314,0.557,0.522,�k�k��,4.4,��
2024/02/04,05:40,0.514,0.782,0.487,0.986,0.700,0.313,0.559,0.523,�k�k��,5.5,��
2024/02/04,05:50,0.514,0.781,0.484,0.985,0.699,0.313,0.559,0.524,�k��,5.7,��
2024/02/04,06:00,0.515,0.781,0.486,0.985,0.699,0.313,0.560,0.522,�k��,4.9,��
2024/02/04,06:10,0.515,0.780,0.487,0.985,0.702,0.313,0.560,0.523,�k�k��,4.3,��
2024/02/04,06:20,0.512,0.781,0.486,0.985,0.698,0.314,0.558,0.523,�k�k��,3.8,��
2024/02/04,06:30,0.516,0.782,0.487,0.986,0.701,0.314,0.558,0.522,�k�k��,3.5,��
2024/02/04,06:40,0.514,0.782,0.485,0.984,0.700,0.312,0.559,0.523,�k�k��,4.0,��
2024/02/04,06:50,0.514,0.780,0.487,0.985,0.700,0.313,0.559,0.523,�k��,4.2,��
2024/02/04,07:00,0.514,0.782,0.487,0.986,0.699,0.314,0.558,0.522,�k�k��,3.9,��
2024/02/04,07:10,0.515,0.781,0.488,0.983,0.700,0.312,0.559,0.523,�k�k��,3.5,��
2024/02/04,07:20,0.514,0.780,0.488,0.986,0.698,0.313,0.560,0.524,�k�k��,3.8,��
2024/02/04,07:30,0.513,0.780,0.486,0.985,0.701,0.313,0.559,0.522,�k�k��,3.9,��
2024/02/04,07:40,0.516,0.782,0.486,0.983,0.699,0.312,0.559,0.523,�k�k��,3.7,��
2024/02/04,07:50,0.514,0.782,0.486,0.984,0.699,0.313,0.558,0.523,�k�k��,4.1,��
2024/02/04,08:00,0.515,0.783,0.486,0.983,0.701,0.313,0.559,0.522,�k�k��,6.3,��
2024/02/04,08:10,0.515,0.783,0.486,0.984,0.700,0.314,0.559,0.524,�k��,5.7,��
2024/02/04,08:20,0.515,0.780,0.486,0.985,0.700,0.314,0.560,0.523,�k��,4.8,��
2024/02/04,08:30,0.515,0.781,0.487,0.985,0.700,0.313,0.559,0.523,���k��,4.8,��
2024/02/04,08:40,0.515,0.781,0.488,0.986,0.703,0.313,0.559,0.523,���k��,4.1,��
2024/02/04,08:50,0.514,0.782,0.487,0.983,0.699,0.312,0.559,0.522,���k��,5.2,��
2024/02/04,09:00,0.514,0.782,0.487,0.984,0.699,0.315,0.559,0.524,���k��,4.1,��
2024/02/04,09:10,0.516,0.781,0.489,0.985,0.699,0.314,0.558,0.522,���k��,4.1,��
2024/02/04,09:20,0.515,0.782,0.487,0.984,0.700,0.315,0.559,0.522,���k��,3.3,��
2024/02/04,09:30,0.516,0.783,0.486,0.984,0.701,0.314,0.560,0.524,���k��,4.5,��
2024/02/04,09:40,0.514,0.782,0.487,0.985,0.700,0.314,0.560,0.523,���k��,3.8,��
2024/02/04,09:50,0.516,0.783,0.488,0.987,0.702,0.314,0.560,0.524,�k��,4.2,��
2024/02/04,10:00,0.515,0.783,0.487,0.987,0.701,0.314,0.561,0.524,���k��,5.4,��
2024/02/04,10:10,0.516,0.784,0.488,0.987,0.700,0.314,0.559,0.523,���k��,5.5,��
2024/02/04,10:20,0.516,0.785,0.487,0.984,0.700,0.315,0.559,0.523,�k��,5.1,��
2024/02/04,10:30,0.514,0.786,0.486,0.986,0.702,0.315,0.560,0.524,�k��,5.1,��
2024/02/04,10:40,0.515,0.782,0.488,0.987,0.701,0.313,0.559,0.526,���k��,5.1,��
2024/02/04,10:50,0.516,0.782,0.487,0.986,0.701,0.314,0.561,0.524,���k��,4.0,��
2024/02/04,11:00,0.515,0.783,0.487,0.987,0.699,0.315,0.558,0.523,�k��,3.5,��
2024/02/04,11:10,0.515,0.782,0.489,0.986,0.702,0.314,0.559,0.525,���k��,6.2,��
2024/02/04,11:20,0.516,0.782,0.489,0.984,0.702,0.315,0.559,0.525,��,4.7,��
2024/02/04,11:30,0.515,0.780,0.487,0.987,0.703,0.315,0.561,0.524,���k��,2.2,��
2024/02/04,11:40,0.515,0.781,0.489,0.985,0.703,0.314,0.559,0.525,�k�k��,2.0,��
2024/02/04,11:50,0.514,0.782,0.488,0.987,0.702,0.315,0.559,0.524,�k�k��,1.9,��
2024/02/04,12:00,0.516,0.780,0.490,0.986,0.702,0.315,0.559,0.523,�k�k��,2.9,��
2024/02/04,12:10,0.516,0.782,0.489,0.987,0.702,0.314,0.559,0.525,�k�k��,2.3,��
2024/02/04,12:20,0.516,0.782,0.487,0.988,0.701,0.313,0.559,0.524,��,1.9,��
2024/02/04,12:30,0.515,0.781,0.490,0.986,0.701,0.314,0.559,0.525,���쓌,2.2,��
2024/02/04,12:40,0.517,0.783,0.488,0.988,0.702,0.316,0.558,0.525,���쓌,3.2,��
2024/02/04,12:50,0.515,0.784,0.489,0.990,0.699,0.314,0.559,0.525,��,1.7,��
2024/02/04,13:00,0.515,0.780,0.488,0.989,0.702,0.315,0.558,0.526,��,1.5,��
2024/02/04,13:10,0.517,0.781,0.487,0.985,0.702,0.316,0.559,0.526,��,0.6,��
2024/02/04,13:20,0.517,0.782,0.489,0.988,0.700,0.315,0.560,0.525,�k�k��,0.9,��
2024/02/04,13:30,0.516,0.784,0.490,0.987,0.701,0.314,0.559,0.524,���k��,1.2,��
2024/02/04,13:40,0.517,0.781,0.487,0.989,0.704,0.316,0.561,0.524,��,2.6,��
2024/02/04,13:50,0.517,0.782,0.487,0.987,0.701,0.317,0.560,0.524,���k��,2.0,��
2024/02/04,14:00,0.516,0.782,0.490,0.988,0.700,0.317,0.561,0.523,���k��,1.5,��
2024/02/04,14:10,0.517,0.783,0.489,0.989,0.701,0.315,0.559,0.522,�k,4.2,��
2024/02/04,14:20,0.517,0.783,0.487,0.987,0.702,0.315,0.561,0.524,���쓌,2.0,��
2024/02/04,14:30,0.517,0.781,0.489,0.988,0.703,0.315,0.560,0.522,���쓌,1.1,��
2024/02/04,14:40,0.515,0.782,0.489,0.988,0.701,0.315,0.559,0.522,��,4.9,��
2024/02/04,14:50,0.517,0.783,0.488,0.988,0.701,0.316,0.560,0.522,��,4.6,��
2024/02/04,15:00,0.516,0.782,0.487,0.987,0.702,0.316,0.560,0.523,���k��,4.4,��
2024/02/04,15:10,0.515,0.783,0.487,0.989,0.701,0.314,0.560,0.523,�k��,8.1,��
2024/02/04,15:20,0.514,0.781,0.487,0.988,0.700,0.315,0.560,0.524,�k��,7.0,��
2024/02/04,15:30,0.516,0.782,0.488,0.988,0.701,0.315,0.558,0.523,�k��,7.5,��
2024/02/04,15:40,0.515,0.784,0.488,0.986,0.701,0.315,0.559,0.523,���k��,7.1,��
2024/02/04,15:50,0.517,0.783,0.486,0.987,0.702,0.315,0.560,0.526,�k��,6.3,��
2024/02/04,16:00,0.515,0.786,0.488,0.988,0.702,0.314,0.561,0.524,�k��,6.0,��
2024/02/04,16:10,0.517,0.784,0.487,0.986,0.703,0.314,0.560,0.525,�k��,6.5,��
2024/02/04,16:20,0.517,0.785,0.488,0.989,0.704,0.315,0.559,0.524,���k��,5.3,��
2024/02/04,16:30,0.516,0.785,0.489,0.988,0.704,0.314,0.559,0.525,�k��,3.9,��
2024/02/04,16:40,0.517,0.784,0.488,0.986,0.704,0.314,0.561,0.523,�k��,3.9,��
2024/02/04,16:50,0.516,0.785,0.488,0.989,0.704,0.314,0.562,0.524,�k��,3.8,��
2024/02/04,17:00,0.516,0.782,0.489,0.988,0.704,0.314,0.561,0.524,�k��,4.5,��
2024/02/04,17:10,0.517,0.784,0.488,0.989,0.702,0.315,0.561,0.527,�k�k��,5.9,��
2024/02/04,17:20,0.516,0.784,0.487,0.987,0.703,0.314,0.560,0.526,�k�k��,4.5,��
2024/02/04,17:30,0.516,0.784,0.489,0.986,0.703,0.313,0.560,0.523,�k�k��,4.6,��
2024/02/04,17:40,0.517,0.785,0.488,0.988,0.705,0.314,0.561,0.524,�k�k��,5.1,��
2024/02/04,17:50,0.516,0.784,0.489,0.986,0.702,0.314,0.561,0.524,�k��,4.4,��
2024/02/04,18:00,0.515,0.783,0.487,0.988,0.702,0.314,0.560,0.525,���k��,4.8,��
2024/02/04,18:10,0.516,0.785,0.490,0.989,0.702,0.312,0.559,0.525,���k��,4.1,��
2024/02/04,18:20,0.516,0.783,0.488,0.988,0.703,0.312,0.559,0.524,���k��,2.6,��
2024/02/04,18:30,0.516,0.783,0.486,0.987,0.702,0.312,0.559,0.525,��,2.9,��
2024/02/04,18:40,0.516,0.781,0.487,0.987,0.701,0.314,0.561,0.524,���쐼,3.0,��
2024/02/04,18:50,0.515,0.783,0.488,0.985,0.703,0.313,0.560,0.525,��,3.5,��
2024/02/04,19:00,0.515,0.784,0.490,0.987,0.702,0.314,0.560,0.525,��,3.1,��
2024/02/04,19:10,0.515,0.784,0.489,0.986,0.703,0.313,0.559,0.524,��,4.2,��
2024/02/04,19:20,0.514,0.783,0.487,0.986,0.703,0.314,0.559,0.523,�쐼,1.4,��
2024/02/04,19:30,0.516,0.783,0.488,0.986,0.702,0.314,0.559,0.523,��,2.2,��
2024/02/04,19:40,0.517,0.782,0.487,0.986,0.703,0.314,0.559,0.523,��,3.2,��
2024/02/04,19:50,0.517,0.784,0.488,0.985,0.701,0.314,0.560,0.523,��,2.0,��
2024/02/04,20:00,0.516,0.784,0.486,0.988,0.703,0.314,0.560,0.523,��,2.8,��
2024/02/04,20:10,0.516,0.783,0.488,0.986,0.703,0.314,0.559,0.523,���쐼,2.2,��
2024/02/04,20:20,0.516,0.784,0.488,0.987,0.702,0.314,0.558,0.524,���쐼,2.5,��
2024/02/04,20:30,0.515,0.782,0.487,0.988,0.702,0.313,0.560,0.524,���쐼,3.5,��
2024/02/04,20:40,0.515,0.783,0.487,0.985,0.703,0.313,0.559,0.524,�쐼,2.8,��
2024/02/04,20:50,0.515,0.783,0.487,0.987,0.702,0.313,0.559,0.523,���쐼,3.5,��
2024/02/04,21:00,0.516,0.782,0.486,0.987,0.702,0.314,0.560,0.522,���쐼,4.5,��
2024/02/04,21:10,0.516,0.784,0.486,0.987,0.701,0.313,0.558,0.523,���쐼,5.4,��
2024/02/04,21:20,0.515,0.783,0.487,0.985,0.701,0.313,0.560,0.523,���쐼,5.6,��
2024/02/04,21:30,0.516,0.781,0.487,0.987,0.701,0.313,0.558,0.523,���쐼,5.9,��
2024/02/04,21:40,0.515,0.783,0.488,0.984,0.701,0.313,0.558,0.524,���쐼,5.8,��
2024/02/04,21:50,0.515,0.784,0.488,0.985,0.701,0.313,0.559,0.523,���쐼,5.6,��
2024/02/04,22:00,0.514,0.784,0.487,0.988,0.704,0.313,0.558,0.525,���쐼,6.0,��
2024/02/04,22:10,0.515,0.782,0.487,0.986,0.701,0.313,0.559,0.523,���쐼,5.7,��
2024/02/04,22:20,0.515,0.782,0.488,0.987,0.701,0.314,0.558,0.522,���쐼,6.0,��
2024/02/04,22:30,0.516,0.782,0.486,0.986,0.700,0.313,0.559,0.523,���쐼,6.4,��
2024/02/04,22:40,0.515,0.782,0.488,0.986,0.702,0.314,0.557,0.524,���쐼,6.2,��
2024/02/04,22:50,0.515,0.782,0.486,0.986,0.701,0.313,0.558,0.522,��,6.2,��
2024/02/04,23:00,0.514,0.785,0.487,0.987,0.700,0.313,0.559,0.522,��,5.0,��
2024/02/04,23:10,0.514,0.782,0.485,0.987,0.702,0.313,0.558,0.523,��,4.8,��
2024/02/04,23:20,0.517,0.783,0.488,0.983,0.702,0.314,0.558,0.523,��,5.7,��
2024/02/04,23:30,0.516,0.782,0.487,0.986,0.703,0.314,0.558,0.524,��,5.5,��
2024/02/04,23:40,0.514,0.784,0.488,0.985,0.702,0.313,0.558,0.523,��,6.5,��
2024/02/04,23:50,0.516,0.783,0.488,0.987,0.702,0.313,0.557,0.524,��,6.0,��
